{"data":{"norad_id":57036,"epoch":"2026-05-25T04:53:04.273152Z","epoch_age_seconds":57625,"freshness":"FRESH","line1":"1 57036U 23085AJ  26145.20352168  .00003731  00000+0  18086-3 0  9993","line2":"2 57036  97.4852 250.9687 0007915 150.8039 209.3639 15.19120484162830","mean_motion":15.19120484,"eccentricity":0.0007915,"inclination_deg":97.4852,"raan_deg":250.9687,"arg_perigee_deg":150.8039,"mean_anomaly_deg":209.3639,"bstar":0.00018086,"rev_number":16283,"period_min":94.791691321832,"perigee_km":503.04663621142,"apogee_km":513.94817847825,"semimajor_km":6886.6344073448,"source":"CELESTRAK","updated_at":"2026-05-25T13:37:59.795383Z"}}